Regional Weather Roundup
Issued by NWS Upton, NY

Home | Current Version | Previous Version | Text Only | Print | Product List | Glossary On
Versions: 1 2 3 4 5 6 7 8 9 10 11 12 13 14 15 16 17 18 19 20 21 22 23 24 25 26 27 28 29 30 31 32 33 34 35 36 37 38 39 40 41 42 43 44 45 46 47 48 49 50
000
ASUS41 KOKX 181708
RWROKX

REGIONAL WEATHER ROUNDUP
NATIONAL WEATHER SERVICE NEW YORK NY
100 PM EDT SAT APR 18 2015

NOTE: "FAIR" INDICATES FEW OR NO CLOUDS BELOW 12,000 FEET WITH NO
SIGNIFICANT WEATHER AND/OR OBSTRUCTIONS TO VISIBILITY.

NYZ071-072-176-178-NJZ106-104-181800-
NEW YORK CITY METRO AREA


CITY           SKY/WX    TMP DP  RH WIND       PRES   REMARKS
CENTRAL PARK   MOSUNNY   75  37  25 VRB6      29.96F
LAGUARDIA APRT PTSUNNY   74  40  29 NW6       29.93F
KENNEDY INTL   PTSUNNY   71  45  39 SW13      29.96F
NEWARK/LIBERTY PTSUNNY   77  37  23 NW7G17    29.94F
BRNX BOT. GARD   N/A     73  37  27 W18       29.95S
TETERBORO      SUNNY     75  39  27 VRB5      29.92F
$$

NYZ177-179-078>081-181800-
LONG ISLAND NEW YORK

CITY           SKY/WX    TMP DP  RH WIND       PRES   REMARKS
FARMINGDALE    MOSUNNY   74  43  32 VRB7      29.95F
ISLIP          PTSUNNY   74  39  28 W9        29.92F
SHIRLEY        LGT RAIN  73  40  30 N12G20    29.94F
WESTHAMPTON    MOSUNNY   73  39  29 VRB7G23   29.95F
MONTAUK POINT    N/A     69  45  41 SW7       29.94F
$$

NYZ052-065-067-181800-
HUDSON VALLEY

CITY           SKY/WX    TMP DP  RH WIND       PRES   REMARKS
WHITE PLAINS   MOSUNNY   73  39  29 NW15      29.93F
NEWBURGH       MOSUNNY   72  45  37 W10G24    29.93F
MONTGOMERY     SUNNY     75  42  30 W8G20     29.90F
POUGHKEEPSIE   SUNNY     75  42  30 W10       29.89F
ALBANY         PTSUNNY   70  41  34 W6        29.88F
$$

NJZ001-105-106-008-010-013-015-019>022-104-181800-
NEW JERSEY

CITY           SKY/WX    TMP DP  RH WIND       PRES   REMARKS
NEWARK/LIBERTY PTSUNNY   77  37  23 NW7G17    29.94F
TETERBORO      SUNNY     75  39  27 VRB5      29.92F
CALDWELL       SUNNY     75  39  27 N12G24    29.94F
MORRISTOWN     PTSUNNY   75  39  27 N10G16    29.95F
SOMERVILLE     SUNNY     77  41  27 NW10      29.93F
SUSSEX         MOSUNNY   75  40  28 W10G17    29.94F
ANDOVER          N/A     74  41  30 MISG      29.94F
TRENTON        MOSUNNY   75  41  29 W9        29.95F
MILLVILLE      SUNNY     76  46  34 W8        29.98F
ATLANTIC CITY  SUNNY     72  46  39 S9        29.98F
WRIGHTSTOWN    MOSUNNY   75  39  27 W8        29.93F
TOMS RIVER     SUNNY     75  37  25 NW9G16    29.97F
BELMAR         SUNNY     75  39  27 W9        29.96F
$$

PAZ047>061-062-071-181800-
EASTERN PENNSYLVANIA

CITY           SKY/WX    TMP DP  RH WIND       PRES   REMARKS
PHILADELPHIA   PTSUNNY   76  35  22 VRB6      29.98F
ALLENTOWN      MOSUNNY   74  43  32 W9        29.96F
SCRANTON       PTSUNNY   74  40  29 SW13G22   29.94F
$$

CTZ002-004>006-009-010-012-RIZ004-006-007-MAZ004-011-015-181800-
SOUTHERN NEW ENGLAND
 IN CT

CITY           SKY/WX    TMP DP  RH WIND       PRES   REMARKS
BRADLEY INTL   MOSUNNY   74  39  28 W10G17    29.88F
HARTFORD       SUNNY     74  40  29 W9        29.90F
DANBURY        SUNNY     71  39  31 W12       29.93F
WTRBRY/OXFORD  SUNNY     70  43  37 NW7G18    29.93F
BRIDGEPORT     SUNNY     68  47  46 SW16      29.92F
MERIDEN        SUNNY     74  37  26 N7        29.90F
NEW HAVEN      SUNNY     64  46  52 S13       29.92F
CHESTER        FAIR      72  37  28 N9        29.92F
GROTON         SUNNY     62  45  53 SW16      29.91F
WILLIMANTIC    SUNNY     71  39  31 W8        29.89F

 IN RI

CITY           SKY/WX    TMP DP  RH WIND       PRES   REMARKS
PROVIDENCE     MOSUNNY   73  36  25 VRB5      29.89F
BLOCK ISLAND   SUNNY     66  45  45 SW10      29.93F
WESTERLY       SUNNY     62  46  55 SW10      29.92F

 IN MA

CITY           SKY/WX    TMP DP  RH WIND       PRES   REMARKS
BOSTON         SUNNY     51  40  65 E13       29.92F
WORCESTER      SUNNY     67  33  28 W14G24    29.89F
WESTFIELD      MOSUNNY   74  38  27 NW17G23   29.88F
PROVINCETOWN   SUNNY     52  41  66 E13       29.93F
NANTUCKET      SUNNY     62  45  53 VRB7      29.93F
$$

ANZ330-335-338-340-345-350-353-355-181800-
COASTAL MARINE OBSERVATIONS


STATION/POSITION TIME  SKY/WX   TEMP    WIND        PRES    VSBY  WAVE
                                AIR SEA DIR/SP/G                  HT/PER
                 (UTC)          (F)     (DEG/KT/KT) (MB)    (MI)  (FT/S)
NY HARB ENTRANCE 1650            57 51  210/  6/  6 1014.7          3/ 6
4S FIRE IS       1603               46                N/A           3/ 7
20S FIRE ISLAND  1550               45              1015.9          3/ 6
23SW MTP         NOT AVBL
HUDSON CANYON    NOT AVBL
EXECUTION ROCKS  NOT AVBL
WESTERN LI SOUND NOT AVBL
CENTRAL LI SOUND NOT AVBL
EASTERN LI SOUND 1600            47     250/ 12/ 14   N/A
ROBBINS REEF     1600            66     150/  8/  9 1013.7
$$


>>>>>>>>>>>>>>>>>>>>>>>>>>>> KEY <<<<<<<<<<<<<<<<<<<<<<<<<<<
>                                                          <
>     SKY/WX - SKY CONDITION/PRESENT WEATHER               <
>     TMP    - TEMPERATURE IN FAHRENHEIT                   <
>     DP     - DEWPOINT IN FAHRENHEIT                      <
>     RH     - RELATIVE HUMIDITY IN PERCENT                <
>     WIND   - DIRECTION AND SPEED IN MPH                  <
>     PRES   - MEAN SEA LEVEL PRESSURE IN INCHES OF HG     <
>     WCI    - WIND CHILL INDEX                            <
>     VSB    - VISIBILITY IN MILES                         <
>     HX     - HEAT INDEX                                  <
>     TC     - TEMPERATURE IN CELSIUS                      <
>     VRB    - VARIABLE WIND DIRECTION                     <
>                                                          <
>>>>>>>>>>>>>>>>>>>>>>>>>>>> KEY <<<<<<<<<<<<<<<<<<<<<<<<<<<




USA.gov is the U.S. government's official web portal to all federal, state and local government web resources and services.